RYR5805 EPMO-ESMS

Flight info

Callsign RYR5805
Flight time 0h 54m
Altitude 38000
Route OLILA L621 ROE
Aircraft B738/M-SDE2E3FGHIRWXY/LB1

Departure

Time 2026-05-08 15:45
Airport Warsaw Modlin Airport (EPMO)

Arrival

Time 2026-05-08 16:40
Airport Malmö Sturup Airport (ESMS)
Time Latitude Longitude Altitude Speed Heading
2026-05-08 15:23 52.44755 20.65341 337 ft 0 kts 206°
2026-05-08 15:37 52.44757 20.65342 337 ft 1 kts 205°
2026-05-08 15:38 52.44772 20.65352 334 ft 3 kts 186°
2026-05-08 15:38 52.44790 20.65350 334 ft 3 kts 142°
2026-05-08 15:38 52.44798 20.65333 334 ft 2 kts 85°
2026-05-08 15:38 52.44797 20.65321 333 ft 1 kts 81°
2026-05-08 15:41 52.44797 20.65322 333 ft 1 kts 81°
2026-05-08 15:41 52.44804 20.65397 334 ft 13 kts 82°
2026-05-08 15:41 52.44823 20.65607 336 ft 23 kts 82°
2026-05-08 15:42 52.44846 20.65874 336 ft 23 kts 81°
2026-05-08 15:42 52.44871 20.66130 337 ft 22 kts 81°
2026-05-08 15:42 52.44893 20.66379 337 ft 22 kts 82°
2026-05-08 15:42 52.44917 20.66621 337 ft 21 kts 81°
2026-05-08 15:43 52.44938 20.66852 333 ft 19 kts 81°
2026-05-08 15:43 52.44957 20.67028 333 ft 13 kts 70°
2026-05-08 15:43 52.45033 20.67074 334 ft 13 kts 350°
2026-05-08 15:43 52.45117 20.67053 335 ft 9 kts 351°
2026-05-08 15:44 52.45160 20.67042 337 ft 6 kts 351°
2026-05-08 15:44 52.45238 20.67005 334 ft 15 kts 343°
2026-05-08 15:44 52.45283 20.66893 338 ft 13 kts 260°
2026-05-08 15:44 52.45254 20.66587 334 ft 63 kts 261°
2026-05-08 15:45 52.45143 20.65403 338 ft 144 kts 261°
2026-05-08 15:45 52.44970 20.63506 762 ft 179 kts 264°
2026-05-08 15:45 52.44794 20.61409 1692 ft 196 kts 265°
2026-05-08 15:45 52.44596 20.59139 2584 ft 202 kts 262°
2026-05-08 15:46 52.44337 20.56892 3613 ft 198 kts 259°
2026-05-08 15:46 52.44371 20.54651 4465 ft 202 kts 294°
2026-05-08 15:46 52.45298 20.52924 5231 ft 217 kts 328°
2026-05-08 15:46 52.46853 20.52182 5589 ft 253 kts 352°
2026-05-08 15:47 52.48676 20.51982 6329 ft 268 kts 353°
2026-05-08 15:47 52.50395 20.50899 7259 ft 268 kts 318°
2026-05-08 15:47 52.51628 20.48619 8340 ft 267 kts 307°
2026-05-08 15:47 52.52801 20.46212 9333 ft 272 kts 307°
2026-05-08 15:48 52.55225 20.41211 10796 ft 299 kts 307°
2026-05-08 15:48 52.56575 20.38429 11034 ft 327 kts 307°
2026-05-08 15:48 52.58031 20.35450 11673 ft 339 kts 307°
2026-05-08 15:49 52.59525 20.32408 12525 ft 344 kts 307°
2026-05-08 15:49 52.61046 20.29318 13434 ft 349 kts 307°
2026-05-08 15:49 52.62589 20.26189 14264 ft 354 kts 307°
2026-05-08 15:49 52.64147 20.23026 15095 ft 356 kts 307°
2026-05-08 15:50 52.65713 20.19848 15970 ft 358 kts 307°
2026-05-08 15:50 52.67269 20.16685 16788 ft 361 kts 307°
2026-05-08 15:50 52.68864 20.13442 17601 ft 365 kts 307°
2026-05-08 15:50 52.70472 20.10167 18395 ft 369 kts 307°
2026-05-08 15:51 52.72097 20.06852 19102 ft 372 kts 307°
2026-05-08 15:51 52.73725 20.03528 19811 ft 374 kts 307°
2026-05-08 15:51 52.75365 20.00175 20526 ft 376 kts 307°
2026-05-08 15:51 52.77018 19.96791 21211 ft 379 kts 307°
2026-05-08 15:52 52.78681 19.93382 21891 ft 382 kts 307°
2026-05-08 15:52 52.80355 19.89945 22561 ft 385 kts 307°
2026-05-08 15:52 52.82041 19.86481 23210 ft 388 kts 307°
2026-05-08 15:52 52.83742 19.82979 23824 ft 391 kts 307°
2026-05-08 15:53 52.85431 19.79497 24336 ft 394 kts 307°
2026-05-08 15:53 52.87153 19.75941 24857 ft 396 kts 307°
2026-05-08 15:53 52.88887 19.72358 25373 ft 399 kts 307°
2026-05-08 15:53 52.90625 19.68759 25873 ft 401 kts 307°
2026-05-08 15:54 52.92373 19.65136 26360 ft 404 kts 307°
2026-05-08 15:54 52.94133 19.61481 26841 ft 406 kts 307°
2026-05-08 15:54 52.95897 19.57815 27318 ft 409 kts 307°
2026-05-08 15:54 52.97676 19.54111 27782 ft 411 kts 307°
2026-05-08 15:55 52.99463 19.50384 28214 ft 414 kts 307°
2026-05-08 15:55 53.03071 19.42843 29084 ft 419 kts 307°
2026-05-08 15:55 53.04876 19.39064 29708 ft 416 kts 307°
2026-05-08 15:56 53.06666 19.35309 30357 ft 413 kts 307°
2026-05-08 15:56 53.08430 19.31605 30771 ft 414 kts 307°
2026-05-08 15:56 53.10231 19.27812 31062 ft 417 kts 307°
2026-05-08 15:56 53.12038 19.24002 31400 ft 419 kts 307°
2026-05-08 15:57 53.13826 19.20230 31796 ft 419 kts 307°
2026-05-08 15:57 53.15656 19.16361 32213 ft 420 kts 307°
2026-05-08 15:57 53.17447 19.12570 32564 ft 422 kts 307°
2026-05-08 15:57 53.19267 19.08711 32928 ft 423 kts 306°
2026-05-08 15:58 53.21090 19.04841 33315 ft 424 kts 306°
2026-05-08 15:58 53.22912 19.00966 33668 ft 425 kts 306°
2026-05-08 15:58 53.24746 18.97058 34009 ft 427 kts 306°
2026-05-08 15:58 53.26578 18.93150 34331 ft 427 kts 306°
2026-05-08 15:59 53.28390 18.89279 34637 ft 428 kts 306°
2026-05-08 15:59 53.30228 18.85348 34950 ft 428 kts 306°
2026-05-08 15:59 53.32066 18.81409 35246 ft 429 kts 306°
2026-05-08 15:59 53.33903 18.77465 35532 ft 430 kts 306°
2026-05-08 16:00 53.35748 18.73499 35832 ft 430 kts 306°
2026-05-08 16:00 53.37564 18.69588 36125 ft 431 kts 306°
2026-05-08 16:00 53.39405 18.65619 36396 ft 432 kts 306°
2026-05-08 16:00 53.41248 18.61637 36679 ft 432 kts 306°
2026-05-08 16:01 53.43092 18.57648 36966 ft 432 kts 306°
2026-05-08 16:01 53.44935 18.53655 37230 ft 433 kts 306°
2026-05-08 16:01 53.46161 18.50994 37401 ft 434 kts 306°
2026-05-08 16:01 53.48013 18.46972 37659 ft 434 kts 306°
2026-05-08 16:02 53.50463 18.41638 38022 ft 435 kts 306°
2026-05-08 16:02 53.51689 18.38965 38163 ft 436 kts 306°
2026-05-08 16:02 53.55425 18.30801 38163 ft 441 kts 306°
2026-05-08 16:03 53.59161 18.22617 38154 ft 436 kts 306°
2026-05-08 16:03 53.62814 18.14586 38170 ft 433 kts 305°
2026-05-08 16:04 53.66473 18.06511 38177 ft 433 kts 305°
2026-05-08 16:04 53.70126 17.98425 38172 ft 433 kts 305°
2026-05-08 16:05 53.73775 17.90323 38172 ft 433 kts 305°
2026-05-08 16:05 53.77394 17.82261 38181 ft 433 kts 305°
2026-05-08 16:06 53.81042 17.74109 38183 ft 434 kts 305°
2026-05-08 16:06 53.84664 17.65989 38179 ft 434 kts 305°
2026-05-08 16:07 53.88304 17.57800 38185 ft 435 kts 305°
2026-05-08 16:07 53.91947 17.49579 38191 ft 435 kts 305°
2026-05-08 16:08 53.95561 17.41395 38187 ft 435 kts 305°
2026-05-08 16:08 53.99197 17.33137 38182 ft 435 kts 304°
2026-05-08 16:09 54.02824 17.24870 38183 ft 435 kts 304°
2026-05-08 16:09 54.06420 17.16647 38176 ft 435 kts 304°
2026-05-08 16:10 54.10032 17.08360 38187 ft 435 kts 304°
2026-05-08 16:10 54.13643 17.00049 38190 ft 435 kts 304°
2026-05-08 16:11 54.17238 16.91745 38192 ft 434 kts 304°
2026-05-08 16:11 54.20807 16.83473 38197 ft 434 kts 304°
2026-05-08 16:12 54.24368 16.75194 38200 ft 434 kts 304°
2026-05-08 16:12 54.27940 16.66862 38204 ft 433 kts 304°
2026-05-08 16:13 54.31507 16.58513 38205 ft 433 kts 304°
2026-05-08 16:13 54.35063 16.50160 38210 ft 433 kts 304°
2026-05-08 16:14 54.38584 16.41863 38216 ft 432 kts 304°
2026-05-08 16:14 54.42136 16.33467 38220 ft 432 kts 304°
2026-05-08 16:15 54.45647 16.25139 38274 ft 432 kts 301°
2026-05-08 16:15 54.49177 16.16736 38231 ft 433 kts 302°
2026-05-08 16:16 54.52699 16.08324 38227 ft 432 kts 302°
2026-05-08 16:16 54.56206 15.99922 38224 ft 429 kts 302°
2026-05-08 16:17 54.57923 15.95804 38208 ft 415 kts 302°
2026-05-08 16:17 54.59026 15.93155 38213 ft 406 kts 302°
2026-05-08 16:17 54.61155 15.88034 38210 ft 388 kts 302°
2026-05-08 16:17 54.62702 15.84304 38209 ft 375 kts 302°
2026-05-08 16:18 54.65692 15.77059 38251 ft 373 kts 302°
2026-05-08 16:18 54.68759 15.69595 38261 ft 387 kts 302°
2026-05-08 16:19 54.71917 15.61904 38246 ft 395 kts 302°
2026-05-08 16:19 54.75098 15.54145 38234 ft 391 kts 302°
2026-05-08 16:20 54.78217 15.46515 37749 ft 392 kts 302°
2026-05-08 16:20 54.79781 15.42673 37110 ft 395 kts 302°
2026-05-08 16:20 54.81379 15.38743 36480 ft 399 kts 302°
2026-05-08 16:21 54.82983 15.34793 35939 ft 401 kts 302°
2026-05-08 16:21 54.84594 15.30823 35466 ft 401 kts 302°
2026-05-08 16:21 54.86199 15.26861 34986 ft 401 kts 303°
2026-05-08 16:21 54.87799 15.22903 34520 ft 400 kts 303°
2026-05-08 16:22 54.89396 15.18947 34026 ft 399 kts 303°
2026-05-08 16:22 54.90984 15.15009 33482 ft 398 kts 303°
2026-05-08 16:22 54.92547 15.11124 32954 ft 396 kts 303°
2026-05-08 16:22 54.94124 15.07197 32419 ft 395 kts 302°
2026-05-08 16:23 54.95700 15.03267 31911 ft 395 kts 302°
2026-05-08 16:23 54.97270 14.99343 31406 ft 395 kts 302°
2026-05-08 16:23 54.98839 14.95418 30899 ft 394 kts 302°
2026-05-08 16:23 55.00404 14.91494 30426 ft 394 kts 302°
2026-05-08 16:24 55.01964 14.87578 29861 ft 393 kts 302°
2026-05-08 16:24 55.03522 14.83665 29294 ft 392 kts 303°
2026-05-08 16:24 55.05073 14.79762 28737 ft 390 kts 303°
2026-05-08 16:24 55.06621 14.75887 28191 ft 389 kts 305°
2026-05-08 16:25 55.08332 14.72306 27659 ft 388 kts 311°
2026-05-08 16:25 55.10201 14.68915 27141 ft 387 kts 313°
2026-05-08 16:25 55.12114 14.65601 26619 ft 385 kts 314°
2026-05-08 16:25 55.14014 14.62321 26110 ft 383 kts 313°
2026-05-08 16:26 55.15900 14.59027 25612 ft 381 kts 313°
2026-05-08 16:26 55.17760 14.55734 25127 ft 379 kts 313°
2026-05-08 16:26 55.19601 14.52440 24645 ft 377 kts 312°
2026-05-08 16:26 55.21428 14.49145 24171 ft 375 kts 312°
2026-05-08 16:27 55.23210 14.45916 23690 ft 373 kts 312°
2026-05-08 16:27 55.25008 14.42648 23141 ft 371 kts 312°
2026-05-08 16:27 55.26792 14.39397 22595 ft 369 kts 312°
2026-05-08 16:27 55.28565 14.36162 22069 ft 367 kts 312°
2026-05-08 16:28 55.30330 14.32936 21537 ft 365 kts 312°
2026-05-08 16:28 55.32092 14.29713 21023 ft 363 kts 312°
2026-05-08 16:28 55.33832 14.26525 20522 ft 361 kts 312°
2026-05-08 16:28 55.35568 14.23341 20024 ft 359 kts 313°
2026-05-08 16:29 55.37291 14.20175 19535 ft 358 kts 313°
2026-05-08 16:29 55.39009 14.17017 19060 ft 356 kts 313°
2026-05-08 16:29 55.40715 14.13874 18583 ft 354 kts 313°
2026-05-08 16:29 55.42390 14.10785 18054 ft 353 kts 313°
2026-05-08 16:30 55.44079 14.07668 17516 ft 351 kts 313°
2026-05-08 16:30 55.45764 14.04552 16989 ft 349 kts 313°
2026-05-08 16:30 55.47434 14.01459 16476 ft 348 kts 313°
2026-05-08 16:30 55.49097 13.98376 15963 ft 346 kts 313°
2026-05-08 16:31 55.50752 13.95303 15453 ft 344 kts 313°
2026-05-08 16:31 55.52400 13.92239 14886 ft 343 kts 314°
2026-05-08 16:31 55.54035 13.89195 14405 ft 341 kts 314°
2026-05-08 16:31 55.55650 13.86189 13907 ft 340 kts 314°
2026-05-08 16:32 55.57278 13.83151 13376 ft 339 kts 314°
2026-05-08 16:32 55.58898 13.80126 12836 ft 338 kts 315°
2026-05-08 16:32 55.60516 13.77103 12312 ft 338 kts 315°
2026-05-08 16:32 55.62129 13.74082 11801 ft 337 kts 315°
2026-05-08 16:33 55.63736 13.71072 11301 ft 336 kts 315°
2026-05-08 16:33 55.65341 13.68061 10805 ft 335 kts 315°
2026-05-08 16:33 55.66919 13.65098 10255 ft 332 kts 315°
2026-05-08 16:33 55.68487 13.62148 9528 ft 327 kts 315°
2026-05-08 16:34 55.70035 13.59235 8815 ft 322 kts 315°
2026-05-08 16:34 55.71563 13.56355 8120 ft 318 kts 315°
2026-05-08 16:34 55.73070 13.53509 7426 ft 314 kts 315°
2026-05-08 16:34 55.74539 13.50679 6758 ft 310 kts 309°
2026-05-08 16:35 55.75523 13.47292 6049 ft 310 kts 287°
2026-05-08 16:35 55.75941 13.43588 5544 ft 302 kts 272°
2026-05-08 16:35 55.75567 13.40041 5080 ft 293 kts 247°
2026-05-08 16:35 55.74488 13.37047 4579 ft 285 kts 225°
2026-05-08 16:36 55.72840 13.35222 4005 ft 279 kts 195°
2026-05-08 16:36 55.70965 13.34567 3596 ft 271 kts 183°
2026-05-08 16:36 55.69103 13.34492 3214 ft 264 kts 176°
2026-05-08 16:36 55.67304 13.34768 2870 ft 253 kts 171°
2026-05-08 16:37 55.65612 13.35140 2517 ft 236 kts 172°
2026-05-08 16:37 55.64053 13.35471 2221 ft 215 kts 171°
2026-05-08 16:37 55.62627 13.35767 1923 ft 196 kts 171°
2026-05-08 16:37 55.61333 13.36032 1663 ft 179 kts 171°
2026-05-08 16:38 55.60170 13.36272 1470 ft 160 kts 171°
2026-05-08 16:38 55.59106 13.36491 1196 ft 148 kts 170°
2026-05-08 16:38 55.58111 13.36700 966 ft 140 kts 167°
2026-05-08 16:38 55.57139 13.36899 751 ft 141 kts 170°
2026-05-08 16:39 55.56164 13.37114 556 ft 141 kts 168°
2026-05-08 16:39 55.55187 13.37305 345 ft 139 kts 171°
2026-05-08 16:39 55.54249 13.37494 238 ft 124 kts 173°
2026-05-08 16:39 55.53606 13.37626 237 ft 63 kts 173°
2026-05-08 16:40 55.53290 13.37694 239 ft 40 kts 173°
2026-05-08 16:40 55.53052 13.37739 240 ft 28 kts 174°
2026-05-08 16:40 55.52980 13.37685 238 ft 10 kts 261°
2026-05-08 16:40 55.52973 13.37566 232 ft 2 kts 263°
2026-05-08 16:41 55.52970 13.37510 233 ft 8 kts 271°
2026-05-08 16:41 55.53039 13.37450 231 ft 15 kts 354°
2026-05-08 16:41 55.53177 13.37421 231 ft 23 kts 353°
2026-05-08 16:42 55.53483 13.37358 232 ft 22 kts 353°
2026-05-08 16:42 55.53629 13.37327 232 ft 22 kts 353°
2026-05-08 16:42 55.53801 13.37292 232 ft 28 kts 354°
2026-05-08 16:42 55.53998 13.37252 231 ft 28 kts 353°
2026-05-08 16:43 55.54116 13.37228 231 ft 22 kts 353°
2026-05-08 16:43 55.54180 13.37034 232 ft 11 kts 257°
2026-05-08 16:43 55.54172 13.36925 230 ft 9 kts 264°
2026-05-08 16:43 55.54163 13.36851 232 ft 4 kts 228°
2026-05-08 16:44 55.54133 13.36843 230 ft 4 kts 176°
2026-05-08 16:44 55.54112 13.36847 231 ft 5 kts 172°
2026-05-08 16:44 55.54100 13.36850 230 ft 0 kts 173°